This is the latest recevied weather packets stored in our database for station/object LETO. If no packets are shown the sender has not sent any weather packets the latest 1 day(s).
| Time | Temp. | Humidity | Pressure | Rain* | Wind** | Luminosity | Snow |
|---|---|---|---|---|---|---|---|
| 1778024619 | 8.89° C | 70% | 1013 hPa | - | 3.58 m/s, 20° | - | - |
| 1778024023 | 8.89° C | 66% | 1013 hPa | - | 2.24 m/s, 30° | - | - |
| 1778023424 | 8.89° C | 66% | 1013 hPa | - | 2.24 m/s, 30° | - | - |
| 1778022823 | 8.89° C | 66% | 1013 hPa | - | 2.24 m/s, 30° | - | - |
| 1778022340 | 10° C | 61% | 1013 hPa | - | 2.68 m/s, 30° | - | - |
| 1778021625 | 10° C | 61% | 1013 hPa | - | 2.68 m/s, 30° | - | - |
| 1778021020 | 10° C | 61% | 1013 hPa | - | 2.68 m/s, 30° | - | - |
| 1778020421 | 8.89° C | 70% | 1013 hPa | - | 2.24 m/s, 10° | - | - |
| 1778019820 | 8.89° C | 70% | 1013 hPa | - | 2.24 m/s, 10° | - | - |
| 1778019221 | 8.89° C | 70% | 1013 hPa | - | 2.24 m/s, 10° | - | - |
| 1778018742 | 10° C | 57% | 1013 hPa | - | 1.34 m/s, 340° | - | - |
| 1778018024 | 10° C | 57% | 1013 hPa | - | 1.34 m/s, 340° | - | - |
| 1778017424 | 10° C | 57% | 1013 hPa | - | 1.34 m/s, 340° | - | - |
| 1778016824 | 10° C | 61% | 1013 hPa | - | 0 m/s | - | - |
| 1778016220 | 10° C | 61% | 1013 hPa | - | 0 m/s | - | - |
| 1778015622 | 10° C | 61% | 1013 hPa | - | 0 m/s | - | - |
| 1778015022 | 10.56° C | 53% | 1013 hPa | - | 2.24 m/s, 340° | - | - |
| 1778014420 | 10.56° C | 53% | 1013 hPa | - | 2.24 m/s, 340° | - | - |
| 1778013824 | 10.56° C | 53% | 1013 hPa | - | 2.24 m/s, 340° | - | - |
| 1778013222 | 11.67° C | 50% | 1013 hPa | - | 2.24 m/s, 320° | - | - |
| 1778012626 | 11.67° C | 50% | 1013 hPa | - | 2.24 m/s, 320° | - | - |
| 1778012021 | 11.67° C | 50% | 1013 hPa | - | 2.24 m/s, 320° | - | - |
| 1778011420 | 13.89° C | 41% | 1012 hPa | - | 3.58 m/s, 310° | - | - |
| 1778010823 | 13.89° C | 41% | 1012 hPa | - | 3.58 m/s, 310° | - | - |
| 1778010223 | 13.89° C | 41% | 1012 hPa | - | 3.58 m/s, 310° | - | - |
* Rain since midnight (hover to see other rain measurements)
** Current wind speed in m/s (hover to see current wind gust speed)